Regional Weather Roundup
Issued by NWS

Home | Current Version | Previous Version | Text Only | Print | Product List | Glossary On
Versions: 1 2 3 4 5 6 7 8 9 10 11 12 13 14 15 16 17 18 19 20 21 22 23 24 25 26 27 28 29 30 31 32 33 34 35 36 37 38 39 40 41 42 43 44 45 46 47 48 49 50
000
ASUS45 KBOI 172010
RWRID

IDAHO REGIONAL WEATHER ROUNDUP
NATIONAL WEATHER SERVICE BOISE ID
200 PM MDT THU AUG 17 2017

NOTE: "FAIR" INDICATES FEW OR NO CLOUDS BELOW 12000 FEET
WITH NO SIGNIFICANT WEATHER AND/OR OBSTRUCTIONS TO VISIBILITY

IDZ012-014-172100-
SOUTHWEST IDAHO


CITY           SKY/WX    TMP DP  RH WIND       PRES   REMARKS
BOISE          SUNNY     84  45  25 N9        30.10F
CALDWELL       SUNNY     83  47  28 VRB5      30.08F
MOUNTAIN HOME  SUNNY     86  45  23 W9        30.09F
$$

IDZ016-017-172100-
SOUTHCENTRAL IDAHO


CITY           SKY/WX    TMP DP  RH WIND       PRES   REMARKS
BURLEY         SUNNY     80  42  25 W14G22    30.13F
JEROME         SUNNY     83  44  25 W15G21    30.15F
TWIN FALLS     SUNNY     82  41  23 W14G22    30.15F
$$

IDZ019>023-172100-
SOUTHEAST IDAHO


CITY           SKY/WX    TMP DP  RH WIND       PRES   REMARKS
IDAHO FALLS    SUNNY     79  39  23 SW12G18   30.15F
POCATELLO      SUNNY     84  37  18 SW18      30.16S
REXBURG        SUNNY     77  37  23 S6        30.15S
$$

IDZ006-010-011-018-031-032-172100-
CENTRAL IDAHO MOUNTAINS


CITY           SKY/WX    TMP DP  RH WIND       PRES   REMARKS
MCCALL         SUNNY     77  38  24 VRB5      30.18S
HAILEY         MOSUNNY   79  43  27 SW14      30.18S
STANLEY          N/A     76  30  18 VRB7      30.24F
SALMON         SUNNY     79  43  27 VRB5      30.11F
CHALLIS        SUNNY     78  34  20 SE5       30.15F
$$

IDZ002-004-006-007-026-172100-
NORTHERN IDAHO


CITY           SKY/WX    TMP DP  RH WIND       PRES   REMARKS
LEWISTON       SUNNY     84  49  29 CALM      30.05F
LOWELL         NOT AVBL
COEUR D`ALENE  SUNNY     79  47  32 VRB3      30.09F
MULLAN PASS    SUNNY     66  33  29 MISG      30.24S
$$



USA.gov is the U.S. government's official web portal to all federal, state and local government web resources and services.